Overview Statistics Trail Chart Weather Telemetry Raw packets
 

This is the latest recevied weather packets stored in our database for station/object KF6RAL-6. If no packets are shown the sender has not sent any weather packets the latest 10 day(s).

<< 1 2 3 4 >>
Time Temp. Humidity Pressure Rain* Wind** Luminosity Snow
1788702656 26.11° C 26% 1014.2 hPa 0 mm - - -
1788702235 26.67° C 24% 1014.2 hPa 0 mm - - -
1788701816 26.67° C 24% 1014.1 hPa 0 mm - - -
1788701393 26.67° C 23% 1013.9 hPa 0 mm - - -
1788700972 26.11° C 24% 1013.8 hPa 0 mm - - -
1788700551 25.56° C 25% 1014.1 hPa 0 mm - - -
1788700130 26.11° C 25% 1013.9 hPa 0 mm - - -
1788699709 26.11° C 25% 1013.7 hPa 0 mm - - -
1788699288 26.11° C 25% 1013.9 hPa 0 mm - - -
1788698867 26.11° C 25% 1013.8 hPa 0 mm - - -
1788698593 26.11° C 25% 1013.7 hPa 0 mm - - -
1788698450 26.11° C 25% 1013.7 hPa 0 mm - - -
1788698025 26.11° C 24% 1013.7 hPa 0 mm - - -
1788697243 26.67° C 24% 1013.5 hPa 0 mm - - -
1788697183 26.67° C 24% 1013.5 hPa 0 mm - - -
1788696809 26.67° C 23% 1013.5 hPa 0 mm - - -
1788696762 26.67° C 23% 1013.5 hPa 0 mm - - -
1788696341 26.67° C 23% 1013.5 hPa 0 mm - - -
1788695920 26.67° C 23% 1013.5 hPa 0 mm - - -
1788695499 26.67° C 23% 1013.6 hPa 0 mm - - -
1788695078 26.11° C 23% 1013.3 hPa 0 mm - - -
1788694658 26.67° C 22% 1013.2 hPa 0 mm - - -
1788694236 27.22° C 22% 1013.8 hPa 0 mm - - -
1788693815 26.67° C 22% 1013.5 hPa 0 mm - - -
1788693394 26.67° C 22% 1013.1 hPa 0 mm - - -

* Rain latest hour (hover to see other rain measurements)
** Current wind speed in m/s (hover to see current wind gust speed)